Meath Environmental Platform

Observations for Trim Market St

Time AQI Temp °C Hum % Pres Pa CO μg/m³ H₂S μg/m³ NO μg/m³ NO₂ μg/m³ O₃ μg/m³ SO₂ μg/m³ PM1 μg/m³ PM2.5 μg/m³ PM10 μg/m³
Wednesday 15 July 2026
01:46 1 18 68 56,589 0.13 0 0 4.54 26.41 0 5.7 9.48 13.9
01:45 1 18 68 56,600 0.14 0 0 7.25 24 0 6.41 9 13.27
01:44 1 18 68 56,628 0.15 0 0 6.15 26.11 0 6.41 10.96 16.45
01:43 1 18 68 56,640 0.13 0 0 4.76 24.45 0 6.41 12.92 19.02
01:42 1 18 68 56,661 0.14 0 0 8.27 28.26 0 6.41 10.97 15.19
01:41 1 18 68 56,690 0.14 0 0 7.37 24.96 0 6.41 7.55 12.64
01:40 1 18 68 56,706 0.13 0 0 5.68 26.71 0 7.13 10.98 16.48
01:39 1 18 68 56,737 0.14 0 0 6.48 24.46 0 7.13 10.49 15.2
01:38 1 18 68 56,754 0.14 0 0 7.18 25.14 0 6.41 10.98 15.2
01:37 1 18 68 56,768 0.14 0 0 5.69 31.54 0 8.55 13.92 19.05
01:19 1 17.9 67 56,940 0.13 0 0 7.49 28.47 0 5.7 10.54 15.25
01:15 1 17.9 67 56,984 0.13 0 0 7.61 27.07 0 5.7 9.08 13.33
01:11 1 17.9 67 57,062 0.11 0 0 6.43 27.74 0 5.7 11.05 17.22
01:10 1 17.8 67 57,081 0.13 0 0 7.16 27.52 0 7.13 10.56 14.63
01:04 1 17.8 66 57,166 0.12 0 0 6.81 25.75 0 4.28 6.66 9.47
01:03 1 17.8 66 57,171 0.1 0 0 5.81 25.48 0 7.13 10.1 15.31
01:02 1 17.8 66 57,183 0.11 0 0 6.32 26.11 0 5.7 8.63 14.02
01:01 1 17.8 66 57,198 0.11 0 0 6.12 26.59 0 6.41 11.09 15.31
01:00 1 17.8 66 57,216 0.1 0 0 6.73 25.16 0 6.41 10.11 15.32
00:59 1 17.8 66 57,235 0.11 0 0 6.84 25.26 0 6.41 10.12 15.98